SCP
0 0 0 0 0 0 0 0 0 0 0 0 0 1 1 2 3 3 3 3 2 1 1 0 0 0 0 0 0 0 0 0 0 0 0 0 0 0 0 0 0 0 0 0
0 0 0 0 0 0 0 0 0 0 0 1 1 1 1 2 3 3 3 2 2 1 1 0 0 0 0 0 0 0 0 0 0 0 0 0 0 0 0 0 0 0 0 0
0 0 0 0 0 0 0 0 0 0 1 1 1 1 2 2 3 3 3 2 1 1 0 0 0 0 0 0 0 0 0 0 0 0 0 0 0 0 0 0 0 0 0 0
0 0 0 0 0 0 0 0 0 0 1 1 1 2 2 2 3 3 3 2 1 0 0 0 0 0 0 0 0 0 0 0 0 0 0 0 0 0 0 0 0 0 0 0
0 0 0 0 0 0 0 0 0 0 1 1 1 1 1 2 2 2 2 1 1 0 0 0 0 0 0 0 0 0 0 0 0 0 0 0 0 0 0 0 0 0 0 0
0 0 0 0 0 0 0 0 0 0 0 1 1 1 1 1 1 1 1 0 0 0 0 0 0 0 0 0 0 0 0 0 0 0 0 0 0 0 0 0 0 0 0 0
0 0 0 0 0 0 0 0 0 0 0 0 1 1 0 0 0 0 0 0 0 0 0 0 0 0 0 0 0 0 0 0 0 0 0 0 0 0 0 0 0 0 0 0
0 0 0 0 0 0 0 0 0 0 0 0 0 0 0 0 0 0 0 0 0 0 0 0 0 0 0 0 0 0 0 0 0 0 0 0 0 0 0 0 0 0 0 0
0 0 0 0 0 0 0 0 0 0 0 0 0 0 0 0 0 0 0 0 0 0 0 0 0 0 0 0 0 0 0 0 0 0 0 0 0 0 0 0 0 0 0 0
0 0 0 0 0 0 0 0 0 0 0 0 0 0 0 0 0 0 0 0 0 0 0 0 0 0 0 0 0 0 0 0 0 0 0 0 0 0 0 0 0 0 0 0
0 0 0 0 0 0 0 0 0 0 0 0 0 0 0 0 0 0 0 0 0 0 0 0 0 0 0 0 0 0 0 0 0 0 0 0 0 0 0 0 0 0 0 0
0 0 0 0 0 0 0 0 0 0 0 0 0 0 0 0 0 0 0 0 0 0 0 0 0 0 0 0 0 0 0 0 0 0 0 0 0 0 0 0 0 0 0 0
0 0 0 0 0 0 0 0 0 0 0 0 0 0 0 0 0 0 0 0 0 0 0 0 0 0 0 0 0 0 0 0 0 0 0 0 0 0 0 0 0 0 0 0
0 0 0 0 0 0 0 0 0 0 0 0 0 0 0 0 0 0 0 0 0 0 0 0 0 0 0 0 0 0 0 0 0 0 0 0 0 0 0 0 0 0 0 0
0 0 0 0 0 0 0 0 0 0 0 0 0 0 0 0 0 0 0 0 0 0 0 0 0 0 0 0 0 0 0 0 0 0 0 0 0 0 0 0 0 0 0 0
0 0 0 0 0 0 0 0 0 0 0 0 0 0 0 0 0 0 0 0 0 0 0 0 0 0 0 0 0 0 0 0 0 0 0 0 0 0 0 0 0 0 0 0
0 0 0 0 0 0 0 0 0 0 0 0 0 0 0 0 0 0 0 0 0 0 0 0 0 0 0 0 0 0 0 0 0 0 0 0 0 0 0 0 0 0 0 0
0 0 0 0 0 0 0 0 0 0 0 0 0 0 0 0 0 0 0 0 0 0 0 0 0 0 0 0 0 0 0 0 0 0 0 0 0 0 0 0 0 0 0 0
0 0 0 0 0 0 0 0 0 0 0 0 0 0 0 0 0 0 0 0 0 0 0 0 0 0 0 0 0 0 0 0 0 0 0 0 0 0 0 0 0 0 0 0
0 0 0 0 0 0 0 0 0 0 0 0 0 0 0 0 0 0 0 0 0 0 0 0 0 0 0 0 0 0 0 0 0 0 0 0 0 0 0 0 0 0 0 0
0 0 0 0 0 0 0 0 0 0 0 0 0 0 0 0 0 0 0 0 0 0 0 0 0 0 0 0 0 0 0 0 0 0 0 0 0 0 0 0 0 0 0 0
0 0 0 0 0 0 0 0 0 0 0 0 0 0 0 0 0 0 0 0 0 0 0 0 0 0 0 0 0 0 0 0 0 0 0 0 0 0 0 0 0 0 0 0
0 0 0 0 0 0 0 0 0 0 0 0 0 0 0 0 0 0 0 0 0 0 0 0 0 0 0 0 0 0 0 0 0 0 0 0 0 0 0 0 0 0 0 0
0 0 0 0 0 0 0 0 0 0 0 0 0 0 0 0 0 0 0 0 0 0 0 0 0 0 0 0 0 0 0 0 0 0 0 0 0 0 0 0 0 0 0 0
0 0 0 0 0 0 0 0 0 0 0 0 0 0 0 0 0 0 0 0 0 0 0 0 0 0 0 0 0 0 0 0 0 0 0 0 0 0 0 0 0 0 0 0
0 0 0 0 0 0 0 0 0 0 0 0 0 0 0 0 0 0 0 0 0 0 0 0 0 0 0 0 0 0 0 0 0 0 0 0 0 0 0 0 0 0 0 0
0 0 0 0 0 0 0 0 0 0 0 0 0 0 0 0 0 0 0 0 0 0 0 0 0 0 0 0 0 0 0 0 0 0 0 0 0 0 0 0 0 0 0 0
Wind_Speed
8 8 9 11 12 11 12 14 15 16 16 13 11 10 10 7 8 13 15 15 15 15 14 14 12 11 10 9 7 6 4 3 2 1 2 4 6 7 8 9 10 9 10 10
11 11 12 16 17 17 17 17 19 20 19 12 11 9 9 8 8 12 14 14 13 13 13 13 12 11 9 8 6 4 3 1 1 1 4 5 6 7 7 7 8 8 8 9
12 10 11 16 11 11 13 14 15 16 11 13 13 12 11 9 8 9 11 12 12 12 12 11 10 9 8 7 5 4 2 0 1 3 4 5 6 6 6 7 7 7 8 8
9 7 12 2 7 6 8 6 5 7 9 11 12 11 9 9 6 4 9 12 13 13 13 12 10 8 7 6 5 3 1 1 3 4 4 4 5 6 6 6 7 7 7 9
7 10 10 3 6 8 8 6 3 7 10 12 12 8 4 10 7 6 11 14 14 14 13 12 10 7 7 6 4 2 1 3 4 4 5 5 5 6 6 7 7 8 7 8
7 8 6 5 7 9 8 9 5 9 13 14 12 8 6 10 12 15 16 16 15 14 13 11 7 6 7 5 3 3 4 5 5 5 5 5 6 6 6 6 7 8 8 8
9 8 6 8 9 10 9 5 12 15 15 12 9 5 7 11 14 15 16 17 15 14 11 8 7 7 6 4 4 4 5 6 6 5 5 5 5 6 6 7 7 7 8 8
6 8 2 10 10 9 12 18 18 17 12 6 3 8 12 14 15 16 16 15 14 12 10 8 7 6 6 6 5 5 5 5 5 4 4 4 5 5 6 7 7 7 8 9
4 4 8 9 10 12 14 16 15 12 6 3 9 12 15 15 15 15 14 13 11 11 11 8 6 5 7 6 5 5 5 5 4 4 4 5 5 5 5 6 7 7 8 9
6 4 8 9 10 10 11 9 7 3 5 11 15 16 16 15 14 13 12 11 10 11 10 8 7 7 7 6 5 5 5 4 4 4 4 5 5 6 6 6 7 7 8 9
7 6 6 6 9 9 8 9 10 12 14 16 18 18 17 15 14 12 11 10 9 9 9 9 9 9 8 6 5 6 5 4 4 4 5 4 5 6 6 7 6 7 7 8
3 4 4 5 8 9 10 11 13 15 16 16 16 18 17 15 13 12 11 9 9 10 10 10 10 9 8 7 6 5 5 5 4 4 5 6 5 3 1 2 3 5 7 8
1 2 5 8 10 10 12 13 13 14 16 16 16 16 16 14 12 11 11 10 10 11 10 10 10 9 8 8 8 8 7 6 5 6 6 6 6 6 6 3 2 3 6 11
5 5 7 9 9 10 12 13 14 15 15 15 15 14 14 13 12 11 11 11 11 11 11 10 10 10 8 8 7 7 7 6 6 7 7 6 6 6 6 7 8 8 7 10
7 7 8 8 9 9 10 12 14 14 14 14 13 13 13 13 12 12 11 11 11 11 10 10 10 9 8 8 8 9 9 7 7 7 6 6 5 5 6 7 7 8 8 10
7 8 7 8 8 9 10 12 13 14 13 13 12 13 13 13 12 11 10 10 10 10 9 9 9 8 7 7 7 8 8 7 7 6 6 6 6 6 6 6 7 7 7 9
7 7 7 7 8 10 11 12 12 12 12 12 13 13 13 12 11 10 10 10 10 9 9 9 8 7 7 6 6 5 6 5 1 6 7 7 6 6 6 6 7 7 7 9
6 7 7 8 9 11 12 12 12 12 12 13 12 12 11 11 10 10 10 10 10 9 8 8 7 7 7 7 6 5 5 6 7 7 7 7 6 6 6 7 7 8 7 8
9 10 10 10 10 11 12 12 12 12 12 11 11 11 11 10 10 9 9 9 10 10 8 8 5 5 7 6 4 4 6 6 7 7 7 6 6 8 8 8 8 8 8 8
11 11 11 11 11 12 12 12 11 11 10 11 12 11 11 10 9 9 9 9 8 8 8 7 6 6 6 5 6 5 6 7 7 7 7 7 8 8 8 8 9 8 8 8
12 12 12 12 12 12 12 11 11 10 10 10 10 11 10 9 8 8 9 9 9 8 8 4 3 5 5 3 3 6 7 7 7 8 8 7 8 8 9 9 9 9 9 9
11 12 12 12 12 12 11 10 10 10 9 9 10 10 10 9 8 8 9 8 8 4 4 5 7 8 4 5 5 7 7 8 7 7 8 8 8 8 8 9 8 8 9 9
11 11 12 12 12 12 11 10 10 9 9 9 9 9 9 8 7 7 8 7 7 3 4 9 9 3 6 2 7 7 8 8 8 8 8 8 8 8 8 9 8 8 8 9
12 12 11 11 12 12 11 10 9 8 8 9 9 9 8 7 6 7 9 9 6 5 8 8 4 2 6 4 7 8 8 8 8 8 8 8 7 8 8 8 8 8 8 10
13 13 13 13 12 10 11 10 9 9 8 7 8 8 6 6 7 8 9 10 8 7 9 7 3 5 1 8 8 9 9 9 8 8 8 8 8 8 8 8 8 8 8 9
13 12 11 10 9 9 9 9 8 8 7 7 7 7 6 7 9 8 8 10 10 8 8 7 6 3 6 7 8 8 7 6 6 7 8 8 9 9 8 8 10 8 8 9
12 10 9 9 9 8 8 8 8 8 7 7 8 7 7 8 8 9 10 9 8 7 7 6 6 6 7 7 7 7 7 7 7 7 7 7 7 8 8 9 8 8 8 8
Wind_Direction
285 299 293 284 279 276 272 278 282 284 286 293 313 322 313 279 216 185 178 176 173 168 162 156 148 140 135 126 119 119 121 128 141 188 262 281 291 296 298 299 300 305 307 309
268 268 278 279 274 272 271 272 273 275 277 312 332 323 307 283 231 200 184 176 171 160 150 144 137 131 123 117 116 116 117 140 140 283 291 300 306 311 317 324 331 333 332 327
269 271 282 267 279 283 281 281 285 287 319 345 332 325 318 306 263 214 182 167 156 141 133 126 123 119 117 117 119 125 134 164 325 313 317 327 337 349 356 354 352 343 338 332
267 257 251 69 49 351 304 301 357 0 352 345 336 328 334 332 304 191 157 146 133 124 118 113 111 109 112 117 122 130 137 335 341 342 351 12 19 22 8 356 348 341 337 339
252 253 261 188 63 1 316 282 21 358 353 349 342 309 34 27 33 92 112 111 110 111 111 109 109 113 116 118 123 124 36 16 18 17 31 37 34 20 6 351 347 337 348 344
238 253 258 82 38 341 289 258 60 2 345 342 336 318 39 55 73 86 94 100 105 105 105 104 107 117 116 116 106 64 43 47 53 53 51 46 33 10 3 350 352 346 356 345
242 248 266 53 354 321 270 339 354 334 328 327 331 8 73 84 87 93 98 101 103 103 101 102 107 107 103 92 70 60 70 77 76 74 65 44 27 13 360 357 2 355 350 344
239 248 254 27 345 327 318 321 315 314 316 325 55 93 96 97 97 99 100 101 102 101 99 98 100 101 91 75 76 83 90 91 83 61 36 37 22 11 8 358 359 360 353 348
291 311 2 353 334 319 311 304 305 305 305 134 116 107 103 100 99 99 101 103 105 108 107 105 102 95 89 86 92 98 96 86 73 56 38 21 7 14 16 14 4 358 352 346
277 297 344 350 346 342 339 331 337 4 100 115 112 108 104 102 101 104 108 114 119 117 115 112 104 91 89 91 93 91 85 75 63 41 41 46 17 26 22 15 8 357 351 344
279 312 333 10 11 10 24 47 66 79 92 103 106 106 106 107 110 116 121 124 123 117 112 105 97 89 86 86 84 81 75 64 50 50 46 48 54 34 18 37 15 349 348 339
322 352 347 19 37 53 69 74 83 92 96 100 106 111 112 114 119 122 126 128 125 119 112 105 98 89 80 70 64 68 73 58 46 46 44 40 39 63 132 5 347 330 339 343
84 63 74 78 73 73 80 86 92 98 103 107 109 113 116 120 124 128 130 128 122 116 110 104 97 87 77 69 71 68 59 43 43 40 45 41 29 16 15 17 337 339 2 358
106 102 91 80 78 80 87 93 97 101 105 108 112 117 120 122 124 122 118 118 116 113 110 105 97 87 80 79 77 73 71 59 41 50 43 37 28 20 15 8 6 5 14 14
93 85 89 92 96 99 103 108 110 111 113 115 119 120 120 116 112 108 110 114 114 113 109 105 96 88 84 82 74 58 46 43 42 44 42 39 29 23 20 18 14 4 2 5
110 100 99 102 106 112 116 118 116 117 118 119 117 114 110 107 106 106 110 115 115 110 107 103 98 95 92 88 87 84 75 34 7 36 43 43 39 30 26 20 17 10 10 7
129 121 118 115 114 114 117 120 120 123 123 118 115 115 114 112 107 102 99 97 97 100 104 105 102 99 90 75 63 66 70 80 44 40 43 37 38 34 31 27 21 15 16 17
105 100 110 119 120 121 123 123 123 122 119 119 122 122 119 114 107 104 104 105 104 101 100 103 101 97 84 68 51 42 47 43 40 41 44 35 28 39 35 33 28 21 13 17
117 111 113 117 123 126 126 125 125 124 124 124 120 113 109 109 109 109 112 114 113 107 101 99 95 98 85 63 357 58 41 40 44 42 42 47 37 41 38 35 31 27 23 18
122 119 119 121 126 126 125 125 126 124 123 120 117 114 113 113 111 108 102 88 77 91 110 119 128 94 90 64 322 40 43 38 41 42 40 40 39 38 38 37 33 28 26 26
133 128 128 128 129 131 130 130 130 127 128 128 123 118 117 117 115 116 114 102 94 99 111 135 116 96 79 56 303 41 43 40 42 43 37 38 39 39 36 34 33 29 25 25
141 135 135 136 137 136 135 134 133 132 131 128 124 123 125 123 114 99 87 94 109 127 141 118 87 68 40 312 50 51 48 44 44 46 43 37 36 37 37 34 32 29 26 24
146 142 142 144 145 142 142 140 137 134 132 131 130 133 131 126 126 125 116 111 119 136 94 81 90 104 292 346 60 58 52 46 44 45 46 42 38 35 33 32 31 30 28 26
154 150 145 144 148 150 152 147 140 135 131 125 121 123 128 127 114 102 102 99 95 106 93 99 120 247 279 60 60 56 52 46 46 46 43 43 42 38 33 30 29 30 30 30
157 152 149 151 156 156 152 148 145 145 141 126 124 130 134 128 122 115 117 120 131 126 113 122 182 268 27 66 65 63 58 45 33 34 46 40 38 38 34 32 29 30 31 29
155 156 155 159 154 152 156 160 160 158 153 143 133 126 122 120 125 128 129 132 131 131 130 137 142 164 81 76 69 64 66 71 63 53 45 40 40 39 35 31 35 34 35 33
154 152 153 157 157 157 157 160 158 159 159 152 139 133 135 139 139 137 135 138 144 138 126 125 113 98 88 81 75 70 65 60 53 50 49 44 40 37 35 38 37 37 37 38